sat.trackr.live / text

‹ back to catalog

STARLINK-31243

NORAD 58894 · 2024-020U

PAYLOAD ACTIVE UNKNOWN

§ Identity

Operator
Country
US
Launch date
2024-01-29
Launch site
AFWTR
Launch vehicle
Mass (kg)
RCS (m²)

Purposes: comms

External: N2YO · Heavens-Above · Gunter

§ Orbital elements

Epoch: 2026-09-20T08:30:07.192224Z

Period
94.01 min
Inclination
53.1603°
Eccentricity
0.0001010
Mean motion
15.31701982 rev/d
Perigee alt
470.0 km
Apogee alt
471.4 km
Semi-major
6,848.9 km
B*
3.4812e-5
RAAN
136.9078°
Arg perigee
72.1384°
Mean anomaly
287.9727°
Rev number
14,789

§ Raw data

STARLINK-312431 58894U 24020U   26263.35424991  .00000715  00000+0  34812-4 0  99922 58894  53.1603 136.9078 0001010  72.1384 287.9727 15.31701982147893

JSON: /api/v1/satellites/58894 · /tle

For live sub-satellite position, see the globe view (requires WebGL).

§ Visibility from observer

Set your observer location to see the next 7 days of passes ≥ 10°. The values pass through the URL so the page stays shareable.

No JS? Fill the form by hand. The geolocation button needs JavaScript.